User: anonymous   Login
Location: La Pernelle
(49.6188°N, 1.2999°W)
Time: 06:33:45
(UTC+00:00)
Language:

Cosmos 2221 Rocket - Orbit

View from above orbital plane
View from above orbital plane
View from above satellite
View from above satellite

Ground track
Ground track

The orbit data is extracted from the following two-line orbital elements,

1 22237U 92080B   21263.29423009  .00000081  00000-0  78392-5 0  9991
2 22237  82.5093 110.0593 0020336 152.8025 207.4257 14.78457437553269
Epoch (UTC): 20 September 2021 07:03:41
Eccentricity: 0.0020336
inclination: 82.5093°
perigee height: 620 km
apogee height: 648 km
right ascension of ascending node: 110.0593°
argument of perigee: 152.8025°
revolutions per day: 14.78457437
mean anomaly at epoch: 207.4257°
orbit number at epoch: 55326

The dashed part of the orbit path shows where the satellite is in the earth's shadow,  

DLR